NPT592 EKCH-LPPR

Flight info

Callsign NPT592
Flight time 3h 5m
Altitude 34000
Route LANGO DCT SISGA DCT KOVIN DCT NIDUV DCT KIHVI UN872 ERIGA UN741 AZFIC DCT LOTEE DCT ELTEP T328 ASPOR
Aircraft B738/M-SDE2E3FGHIRWXY/LB1

Departure

Time 2026-05-04 19:17
Airport Copenhagen Kastrup Airport (EKCH)

Arrival

Time 2026-05-04 22:22
Airport Francisco de Sá Carneiro Airport (LPPR)
Time Latitude Longitude Altitude Speed Heading
2026-05-04 18:21 55.62061 12.67062 16 ft 0 kts 79°
2026-05-04 18:55 55.62061 12.67061 16 ft 1 kts 79°
2026-05-04 18:55 55.62051 12.66975 18 ft 4 kts 79°
2026-05-04 18:55 55.62048 12.66938 17 ft 4 kts 100°
2026-05-04 18:56 55.62060 12.66907 20 ft 4 kts 164°
2026-05-04 18:56 55.62055 12.66908 18 ft 4 kts 169°
2026-05-04 18:56 55.62035 12.66915 18 ft 0 kts 169°
2026-05-04 19:01 55.62034 12.66916 -11 ft 1 kts 169°
2026-05-04 19:01 55.62005 12.66926 16 ft 7 kts 168°
2026-05-04 19:01 55.61939 12.66949 18 ft 12 kts 169°
2026-05-04 19:01 55.61886 12.66874 16 ft 13 kts 256°
2026-05-04 19:02 55.61867 12.66701 18 ft 16 kts 258°
2026-05-04 19:02 55.61845 12.66494 16 ft 16 kts 259°
2026-05-04 19:02 55.61787 12.66410 16 ft 12 kts 191°
2026-05-04 19:02 55.61702 12.66356 16 ft 14 kts 216°
2026-05-04 19:03 55.61665 12.66285 16 ft 1 kts 236°
2026-05-04 19:03 55.61663 12.66279 16 ft 1 kts 238°
2026-05-04 19:03 55.61662 12.66275 16 ft 0 kts 239°
2026-05-04 19:03 55.61660 12.66270 16 ft 1 kts 240°
2026-05-04 19:04 55.61653 12.66247 17 ft 3 kts 244°
2026-05-04 19:04 55.61642 12.66195 17 ft 6 kts 255°
2026-05-04 19:04 55.61637 12.66096 18 ft 10 kts 273°
2026-05-04 19:04 55.61664 12.65949 18 ft 15 kts 297°
2026-05-04 19:05 55.61703 12.65840 21 ft 0 kts 304°
2026-05-04 19:06 55.61709 12.65824 19 ft 6 kts 303°
2026-05-04 19:06 55.61760 12.65685 19 ft 21 kts 303°
2026-05-04 19:07 55.61852 12.65435 15 ft 25 kts 303°
2026-05-04 19:07 55.61930 12.65224 15 ft 10 kts 303°
2026-05-04 19:07 55.61937 12.65205 15 ft 0 kts 303°
2026-05-04 19:08 55.61940 12.65199 15 ft 3 kts 303°
2026-05-04 19:08 55.61972 12.65110 15 ft 13 kts 303°
2026-05-04 19:08 55.62022 12.64975 18 ft 13 kts 302°
2026-05-04 19:08 55.62069 12.64847 18 ft 12 kts 303°
2026-05-04 19:09 55.62084 12.64805 18 ft 0 kts 304°
2026-05-04 19:10 55.62091 12.64788 17 ft 6 kts 304°
2026-05-04 19:10 55.62112 12.64683 17 ft 11 kts 257°
2026-05-04 19:11 55.62033 12.64570 17 ft 17 kts 213°
2026-05-04 19:11 55.61954 12.64426 16 ft 17 kts 258°
2026-05-04 19:11 55.61940 12.64290 18 ft 0 kts 259°
2026-05-04 19:12 55.61939 12.64281 18 ft 2 kts 260°
2026-05-04 19:13 55.61933 12.64222 16 ft 8 kts 258°
2026-05-04 19:13 55.61902 12.64101 18 ft 13 kts 217°
2026-05-04 19:13 55.61802 12.64075 18 ft 16 kts 176°
2026-05-04 19:13 55.61748 12.64081 19 ft 2 kts 176°
2026-05-04 19:14 55.61747 12.64081 18 ft 0 kts 176°
2026-05-04 19:15 55.61714 12.64085 17 ft 9 kts 176°
2026-05-04 19:15 55.61650 12.64091 20 ft 9 kts 181°
2026-05-04 19:15 55.61598 12.64032 20 ft 9 kts 221°
2026-05-04 19:16 55.61533 12.63932 18 ft 23 kts 221°
2026-05-04 19:16 55.61231 12.63462 21 ft 92 kts 221°
2026-05-04 19:16 55.60599 12.62477 21 ft 149 kts 223°
2026-05-04 19:16 55.59760 12.61197 411 ft 164 kts 223°
2026-05-04 19:17 55.58893 12.59876 1180 ft 165 kts 224°
2026-05-04 19:17 55.57975 12.58471 1645 ft 188 kts 224°
2026-05-04 19:17 55.56914 12.56856 1886 ft 213 kts 225°
2026-05-04 19:17 55.56078 12.54606 2054 ft 231 kts 255°
2026-05-04 19:18 55.55472 12.51860 2419 ft 249 kts 241°
2026-05-04 19:18 55.54499 12.49283 3181 ft 253 kts 238°
2026-05-04 19:18 55.53529 12.46703 4042 ft 252 kts 238°
2026-05-04 19:18 55.52569 12.44100 4884 ft 253 kts 239°
2026-05-04 19:19 55.51616 12.41477 5694 ft 254 kts 239°
2026-05-04 19:19 55.50668 12.38844 6497 ft 255 kts 240°
2026-05-04 19:19 55.49718 12.36187 7223 ft 257 kts 240°
2026-05-04 19:19 55.48761 12.33500 7951 ft 260 kts 240°
2026-05-04 19:20 55.47797 12.30785 8688 ft 262 kts 240°
2026-05-04 19:20 55.46826 12.28047 9433 ft 265 kts 240°
2026-05-04 19:20 55.45846 12.25284 10136 ft 267 kts 240°
2026-05-04 19:20 55.44829 12.22408 10393 ft 288 kts 240°
2026-05-04 19:21 55.43734 12.19310 10575 ft 308 kts 240°
2026-05-04 19:21 55.42563 12.16004 10745 ft 328 kts 240°
2026-05-04 19:21 55.41351 12.12590 11168 ft 337 kts 240°
2026-05-04 19:21 55.40100 12.09077 11811 ft 340 kts 240°
2026-05-04 19:22 55.38844 12.05553 12516 ft 341 kts 240°
2026-05-04 19:22 55.37579 12.02006 13223 ft 344 kts 239°
2026-05-04 19:22 55.36300 11.98426 13905 ft 347 kts 239°
2026-05-04 19:22 55.35010 11.94816 14536 ft 350 kts 240°
2026-05-04 19:23 55.33708 11.91178 15161 ft 354 kts 240°
2026-05-04 19:23 55.32393 11.87509 15793 ft 357 kts 240°
2026-05-04 19:23 55.31063 11.83803 16426 ft 360 kts 240°
2026-05-04 19:23 55.29721 11.80068 17048 ft 364 kts 240°
2026-05-04 19:24 55.28365 11.76299 17662 ft 367 kts 240°
2026-05-04 19:24 55.26994 11.72495 18257 ft 371 kts 240°
2026-05-04 19:24 55.25608 11.68660 18782 ft 374 kts 239°
2026-05-04 19:24 55.24200 11.64789 19315 ft 377 kts 239°
2026-05-04 19:25 55.22774 11.60913 19813 ft 381 kts 239°
2026-05-04 19:25 55.21329 11.57002 20281 ft 384 kts 239°
2026-05-04 19:25 55.19868 11.53056 20803 ft 387 kts 239°
2026-05-04 19:25 55.18400 11.49094 21317 ft 389 kts 239°
2026-05-04 19:26 55.16918 11.45099 21806 ft 392 kts 238°
2026-05-04 19:26 55.15430 11.41090 22286 ft 395 kts 238°
2026-05-04 19:26 55.13925 11.37040 22764 ft 398 kts 238°
2026-05-04 19:26 55.12410 11.32971 23228 ft 401 kts 238°
2026-05-04 19:27 55.10903 11.28929 23654 ft 404 kts 238°
2026-05-04 19:27 55.09366 11.24812 24048 ft 405 kts 238°
2026-05-04 19:27 55.07824 11.20688 24494 ft 406 kts 238°
2026-05-04 19:27 55.06277 11.16560 24910 ft 407 kts 238°
2026-05-04 19:28 55.04722 11.12416 25304 ft 408 kts 238°
2026-05-04 19:28 55.03163 11.08268 25686 ft 410 kts 238°
2026-05-04 19:28 55.01599 11.04113 26118 ft 407 kts 239°
2026-05-04 19:28 55.00069 11.00058 27007 ft 397 kts 239°
2026-05-04 19:29 54.98554 10.96045 27396 ft 398 kts 239°
2026-05-04 19:29 54.97515 10.93292 27389 ft 406 kts 238°
2026-05-04 19:29 54.95951 10.89159 27515 ft 412 kts 238°
2026-05-04 19:29 54.94343 10.85021 27838 ft 414 kts 235°
2026-05-04 19:30 54.92452 10.81229 28238 ft 415 kts 230°
2026-05-04 19:30 54.90476 10.77666 28682 ft 414 kts 229°
2026-05-04 19:30 54.88453 10.74115 29208 ft 411 kts 229°
2026-05-04 19:30 54.86449 10.70608 29770 ft 407 kts 229°
2026-05-04 19:31 54.84470 10.67125 30254 ft 404 kts 229°
2026-05-04 19:31 54.82503 10.63636 30512 ft 406 kts 229°
2026-05-04 19:31 54.80503 10.60064 30691 ft 409 kts 229°
2026-05-04 19:31 54.78565 10.56594 31276 ft 399 kts 229°
2026-05-04 19:32 54.76654 10.53172 31847 ft 394 kts 229°
2026-05-04 19:32 54.74745 10.49748 32025 ft 397 kts 229°
2026-05-04 19:32 54.72818 10.46291 32170 ft 401 kts 229°
2026-05-04 19:32 54.70872 10.42803 32348 ft 404 kts 229°
2026-05-04 19:33 54.68922 10.39314 32588 ft 405 kts 229°
2026-05-04 19:33 54.66962 10.35816 32874 ft 405 kts 229°
2026-05-04 19:33 54.65003 10.32324 33127 ft 406 kts 229°
2026-05-04 19:33 54.63034 10.28822 33327 ft 407 kts 229°
2026-05-04 19:34 54.61057 10.25309 33547 ft 409 kts 229°
2026-05-04 19:34 54.59076 10.21794 33815 ft 409 kts 229°
2026-05-04 19:34 54.57093 10.18282 33984 ft 410 kts 229°
2026-05-04 19:35 54.53096 10.11218 33985 ft 411 kts 229°
2026-05-04 19:35 54.49133 10.04239 33988 ft 405 kts 229°
2026-05-04 19:36 54.45196 9.97322 33998 ft 404 kts 229°
2026-05-04 19:36 54.41254 9.90416 33995 ft 404 kts 229°
2026-05-04 19:37 54.37313 9.83531 33995 ft 405 kts 229°
2026-05-04 19:37 54.33392 9.76700 33988 ft 405 kts 229°
2026-05-04 19:38 54.29436 9.69831 33994 ft 405 kts 229°
2026-05-04 19:38 54.25476 9.62973 33995 ft 406 kts 229°
2026-05-04 19:39 54.21501 9.56109 34008 ft 406 kts 229°
2026-05-04 19:39 54.17514 9.49246 33992 ft 407 kts 228°
2026-05-04 19:40 54.13522 9.42394 33984 ft 407 kts 228°
2026-05-04 19:40 54.09522 9.35548 33968 ft 407 kts 229°
2026-05-04 19:41 54.05522 9.28722 33991 ft 407 kts 229°
2026-05-04 19:41 54.01516 9.21904 33990 ft 407 kts 228°
2026-05-04 19:42 53.97504 9.15097 33983 ft 407 kts 228°
2026-05-04 19:42 53.93489 9.08304 33982 ft 407 kts 228°
2026-05-04 19:43 53.89477 9.01535 33973 ft 407 kts 228°
2026-05-04 19:43 53.85488 8.94825 33987 ft 406 kts 228°
2026-05-04 19:44 53.81446 8.88045 33999 ft 406 kts 228°
2026-05-04 19:44 53.77455 8.81370 33993 ft 406 kts 228°
2026-05-04 19:45 53.73433 8.74661 33996 ft 406 kts 228°
2026-05-04 19:45 53.69407 8.67965 33992 ft 406 kts 228°
2026-05-04 19:46 53.65374 8.61278 33991 ft 406 kts 227°
2026-05-04 19:46 53.61346 8.54616 33994 ft 406 kts 227°
2026-05-04 19:47 53.57315 8.47968 33998 ft 405 kts 227°
2026-05-04 19:47 53.53287 8.41343 34002 ft 405 kts 227°
2026-05-04 19:48 53.49258 8.34737 33999 ft 405 kts 227°
2026-05-04 19:48 53.45225 8.28141 34001 ft 404 kts 226°
2026-05-04 19:49 53.41198 8.21574 34009 ft 403 kts 226°
2026-05-04 19:49 53.37178 8.15038 34009 ft 402 kts 225°
2026-05-04 19:50 53.33163 8.08526 34011 ft 401 kts 225°
2026-05-04 19:50 53.29156 8.02046 34010 ft 400 kts 225°
2026-05-04 19:51 53.25153 7.95591 34011 ft 400 kts 225°
2026-05-04 19:51 53.21149 7.89151 34011 ft 399 kts 225°
2026-05-04 19:52 53.17146 7.82729 34005 ft 399 kts 225°
2026-05-04 19:52 53.13164 7.76359 34003 ft 399 kts 225°
2026-05-04 19:53 53.09147 7.69952 33998 ft 400 kts 225°
2026-05-04 19:53 53.05126 7.63555 34013 ft 400 kts 225°
2026-05-04 19:54 53.01091 7.57154 33980 ft 402 kts 225°
2026-05-04 19:54 52.97047 7.50753 33990 ft 401 kts 224°
2026-05-04 19:55 52.93004 7.44373 33991 ft 401 kts 224°
2026-05-04 19:55 52.88962 7.38013 33986 ft 401 kts 224°
2026-05-04 19:56 52.84919 7.31668 33983 ft 400 kts 224°
2026-05-04 19:56 52.80881 7.25348 33978 ft 400 kts 224°
2026-05-04 19:57 52.76846 7.19048 33973 ft 399 kts 223°
2026-05-04 19:57 52.72812 7.12769 33990 ft 398 kts 223°
2026-05-04 19:58 52.68788 7.06520 33988 ft 397 kts 223°
2026-05-04 19:58 52.64764 7.00289 33992 ft 397 kts 223°
2026-05-04 19:59 52.60730 6.94057 33985 ft 398 kts 223°
2026-05-04 19:59 52.56679 6.87818 33981 ft 399 kts 223°
2026-05-04 20:00 52.52616 6.81577 33973 ft 400 kts 222°
2026-05-04 20:00 52.48535 6.75324 33983 ft 402 kts 222°
2026-05-04 20:01 52.44439 6.69064 33976 ft 403 kts 222°
2026-05-04 20:01 52.40327 6.62796 33972 ft 404 kts 222°
2026-05-04 20:02 52.36227 6.56565 33970 ft 405 kts 222°
2026-05-04 20:02 52.32098 6.50305 33963 ft 405 kts 222°
2026-05-04 20:03 52.27966 6.44058 33969 ft 404 kts 222°
2026-05-04 20:03 52.23832 6.37825 33974 ft 405 kts 222°
2026-05-04 20:04 52.19689 6.31593 33972 ft 406 kts 222°
2026-05-04 20:04 52.15532 6.25358 33972 ft 406 kts 222°
2026-05-04 20:05 52.11366 6.19127 33959 ft 407 kts 222°
2026-05-04 20:05 52.07192 6.12899 33969 ft 407 kts 222°
2026-05-04 20:06 52.03014 6.06681 33966 ft 407 kts 221°
2026-05-04 20:06 51.98854 6.00508 33966 ft 408 kts 221°
2026-05-04 20:07 51.94663 5.94304 33973 ft 408 kts 221°
2026-05-04 20:07 51.90470 5.88114 33969 ft 408 kts 221°
2026-05-04 20:08 51.86276 5.81940 33971 ft 408 kts 221°
2026-05-04 20:08 51.82072 5.75766 33974 ft 408 kts 221°
2026-05-04 20:09 51.77858 5.69594 33971 ft 410 kts 221°
2026-05-04 20:09 51.73624 5.63409 33968 ft 411 kts 221°
2026-05-04 20:10 51.69379 5.57225 33970 ft 412 kts 221°
2026-05-04 20:10 51.65125 5.51042 33967 ft 412 kts 221°
2026-05-04 20:11 51.60865 5.44868 33964 ft 412 kts 221°
2026-05-04 20:11 51.56605 5.38712 33966 ft 411 kts 221°
2026-05-04 20:12 51.52355 5.32584 33966 ft 410 kts 221°
2026-05-04 20:12 51.48103 5.26471 33968 ft 410 kts 221°
2026-05-04 20:13 51.43839 5.20356 33978 ft 411 kts 221°
2026-05-04 20:13 51.39556 5.14229 33974 ft 414 kts 221°
2026-05-04 20:14 51.35267 5.08111 33967 ft 416 kts 221°
2026-05-04 20:14 51.30934 5.01946 33958 ft 418 kts 221°
2026-05-04 20:15 51.26591 4.95781 33967 ft 418 kts 221°
2026-05-04 20:15 51.22240 4.89623 33965 ft 417 kts 220°
2026-05-04 20:16 51.17894 4.83487 33964 ft 416 kts 220°
2026-05-04 20:16 51.13563 4.77389 33966 ft 415 kts 220°
2026-05-04 20:17 51.09246 4.71326 33976 ft 414 kts 221°
2026-05-04 20:17 51.04927 4.65277 33972 ft 414 kts 221°
2026-05-04 20:18 51.01339 4.60263 33968 ft 414 kts 221°
2026-05-04 20:18 50.97042 4.54272 33966 ft 414 kts 220°
2026-05-04 20:19 50.92708 4.48246 33970 ft 415 kts 220°
2026-05-04 20:19 50.88362 4.42217 33969 ft 416 kts 220°
2026-05-04 20:20 50.83996 4.36177 33973 ft 417 kts 220°
2026-05-04 20:20 50.79622 4.30140 33960 ft 418 kts 220°
2026-05-04 20:21 50.75235 4.24103 33971 ft 418 kts 220°
2026-05-04 20:21 50.68651 4.15066 33971 ft 418 kts 220°
2026-05-04 20:22 50.64260 4.09060 33966 ft 418 kts 220°
2026-05-04 20:22 50.59596 4.03649 33965 ft 417 kts 208°
2026-05-04 20:23 50.54488 3.99326 33965 ft 416 kts 208°
2026-05-04 20:23 50.49391 3.95010 33969 ft 416 kts 209°
2026-05-04 20:24 50.44305 3.90673 33966 ft 416 kts 209°
2026-05-04 20:24 50.39221 3.86331 33966 ft 416 kts 209°
2026-05-04 20:25 50.34144 3.82000 33962 ft 415 kts 209°
2026-05-04 20:25 50.29067 3.77681 33963 ft 415 kts 209°
2026-05-04 20:26 50.23988 3.73371 33965 ft 415 kts 209°
2026-05-04 20:26 50.18914 3.69075 33964 ft 415 kts 209°
2026-05-04 20:27 50.13979 3.64330 34145 ft 420 kts 221°
2026-05-04 20:27 50.11915 3.61141 34512 ft 416 kts 229°
2026-05-04 20:27 50.10195 3.57617 34865 ft 413 kts 234°
2026-05-04 20:28 50.06906 3.50196 34957 ft 421 kts 234°
2026-05-04 20:28 50.03559 3.42672 34957 ft 422 kts 234°
2026-05-04 20:29 50.00204 3.35200 34955 ft 421 kts 234°
2026-05-04 20:29 49.96846 3.27768 34954 ft 419 kts 234°
2026-05-04 20:30 49.93493 3.20378 34957 ft 418 kts 234°
2026-05-04 20:30 49.90145 3.13018 34955 ft 417 kts 234°
2026-05-04 20:31 49.86795 3.05676 34950 ft 416 kts 234°
2026-05-04 20:31 49.83447 2.98355 34949 ft 416 kts 234°
2026-05-04 20:32 49.80099 2.91057 34955 ft 416 kts 234°
2026-05-04 20:32 49.76746 2.83766 34953 ft 416 kts 234°
2026-05-04 20:33 49.73390 2.76490 34951 ft 416 kts 234°
2026-05-04 20:33 49.70024 2.69211 34968 ft 416 kts 233°
2026-05-04 20:34 49.66653 2.61942 34947 ft 417 kts 233°
2026-05-04 20:34 49.63275 2.54678 34955 ft 417 kts 233°
2026-05-04 20:35 49.59889 2.47415 34964 ft 417 kts 233°
2026-05-04 20:35 49.56524 2.40218 34961 ft 417 kts 233°
2026-05-04 20:36 49.53131 2.32981 34963 ft 417 kts 233°
2026-05-04 20:36 49.49732 2.25750 34963 ft 417 kts 233°
2026-05-04 20:37 49.46336 2.18546 34979 ft 416 kts 233°
2026-05-04 20:37 49.42938 2.11356 34963 ft 415 kts 232°
2026-05-04 20:38 49.39542 2.04191 34976 ft 414 kts 232°
2026-05-04 20:38 49.36146 1.97044 34965 ft 414 kts 232°
2026-05-04 20:39 49.32752 1.89919 34960 ft 413 kts 232°
2026-05-04 20:39 49.29358 1.82815 34960 ft 413 kts 232°
2026-05-04 20:40 49.25961 1.75725 34971 ft 412 kts 232°
2026-05-04 20:40 49.22566 1.68654 34959 ft 412 kts 232°
2026-05-04 20:41 49.19163 1.61589 34960 ft 412 kts 232°
2026-05-04 20:41 49.15761 1.54542 34959 ft 412 kts 232°
2026-05-04 20:42 49.12355 1.47506 34969 ft 412 kts 232°
2026-05-04 20:42 49.08939 1.40470 34963 ft 412 kts 232°
2026-05-04 20:43 49.05520 1.33443 34967 ft 412 kts 231°
2026-05-04 20:43 49.02099 1.26431 34976 ft 413 kts 231°
2026-05-04 20:44 48.98669 1.19419 34968 ft 413 kts 231°
2026-05-04 20:44 48.95237 1.12422 34966 ft 413 kts 231°
2026-05-04 20:45 48.91801 1.05435 34964 ft 413 kts 230°
2026-05-04 20:45 48.88382 0.98500 34960 ft 412 kts 230°
2026-05-04 20:46 48.84940 0.91537 34950 ft 412 kts 230°
2026-05-04 20:46 48.81494 0.84583 34955 ft 412 kts 230°
2026-05-04 20:47 48.78038 0.77628 34942 ft 413 kts 230°
2026-05-04 20:47 48.74576 0.70679 34945 ft 413 kts 230°
2026-05-04 20:48 48.71109 0.63738 34945 ft 413 kts 230°
2026-05-04 20:48 48.67632 0.56794 34940 ft 414 kts 230°
2026-05-04 20:49 48.64153 0.49863 34949 ft 414 kts 230°
2026-05-04 20:49 48.60666 0.42936 34957 ft 414 kts 229°
2026-05-04 20:50 48.57175 0.36017 34948 ft 415 kts 229°
2026-05-04 20:50 48.53668 0.29087 34949 ft 416 kts 229°
2026-05-04 20:51 48.50154 0.22158 34946 ft 416 kts 229°
2026-05-04 20:51 48.46630 0.15228 34956 ft 417 kts 229°
2026-05-04 20:52 48.43094 0.08292 34952 ft 417 kts 229°
2026-05-04 20:52 48.39552 0.01360 34955 ft 418 kts 229°
2026-05-04 20:53 48.35996 -0.05578 34973 ft 419 kts 228°
2026-05-04 20:53 48.32426 -0.12529 34963 ft 421 kts 228°
2026-05-04 20:54 48.28834 -0.19486 34952 ft 422 kts 227°
2026-05-04 20:54 48.25069 -0.26240 34955 ft 421 kts 225°
2026-05-04 20:55 48.21247 -0.32910 34963 ft 422 kts 225°
2026-05-04 20:55 48.17428 -0.39606 34966 ft 423 kts 226°
2026-05-04 20:56 48.13620 -0.46314 34950 ft 422 kts 226°
2026-05-04 20:56 48.09847 -0.52962 34969 ft 422 kts 226°
2026-05-04 20:57 48.06047 -0.59642 34964 ft 421 kts 226°
2026-05-04 20:57 48.02247 -0.66307 34978 ft 421 kts 225°
2026-05-04 20:58 47.98450 -0.72948 34961 ft 420 kts 225°
2026-05-04 20:58 47.94654 -0.79570 34969 ft 420 kts 225°
2026-05-04 20:59 47.90856 -0.86180 34971 ft 420 kts 225°
2026-05-04 20:59 47.87048 -0.92791 34966 ft 421 kts 225°
2026-05-04 21:00 47.83227 -0.99406 34950 ft 422 kts 225°
2026-05-04 21:00 47.79390 -1.06036 34949 ft 423 kts 225°
2026-05-04 21:01 47.75538 -1.12673 34948 ft 425 kts 225°
2026-05-04 21:01 47.71665 -1.19330 34952 ft 426 kts 225°
2026-05-04 21:02 47.67778 -1.25995 34970 ft 427 kts 225°
2026-05-04 21:02 47.63874 -1.32671 34957 ft 429 kts 225°
2026-05-04 21:03 47.59979 -1.39318 34958 ft 431 kts 225°
2026-05-04 21:03 47.56036 -1.46028 34951 ft 432 kts 226°
2026-05-04 21:04 47.52080 -1.52744 34960 ft 434 kts 226°
2026-05-04 21:04 47.48107 -1.59474 34957 ft 434 kts 226°
2026-05-04 21:05 47.44127 -1.66197 34962 ft 435 kts 226°
2026-05-04 21:05 47.40139 -1.72918 34971 ft 435 kts 226°
2026-05-04 21:06 47.36815 -1.78506 34968 ft 436 kts 226°
2026-05-04 21:06 47.32790 -1.85259 34967 ft 436 kts 226°
2026-05-04 21:07 47.28815 -1.91909 34985 ft 435 kts 226°
2026-05-04 21:07 47.24812 -1.98592 34968 ft 434 kts 226°
2026-05-04 21:08 47.20814 -2.05248 34967 ft 434 kts 226°
2026-05-04 21:08 47.16814 -2.11891 34975 ft 434 kts 226°
2026-05-04 21:09 47.12814 -2.18519 34974 ft 433 kts 226°
2026-05-04 21:09 47.08815 -2.25126 34975 ft 433 kts 226°
2026-05-04 21:10 47.04816 -2.31720 34981 ft 432 kts 226°
2026-05-04 21:10 47.00821 -2.38290 34983 ft 432 kts 226°
2026-05-04 21:11 46.96827 -2.44842 34983 ft 431 kts 226°
2026-05-04 21:11 46.92828 -2.51388 34998 ft 432 kts 226°
2026-05-04 21:12 46.88816 -2.57937 34994 ft 432 kts 226°
2026-05-04 21:12 46.84797 -2.64484 34992 ft 433 kts 226°
2026-05-04 21:13 46.80764 -2.71037 34997 ft 434 kts 226°
2026-05-04 21:13 46.76720 -2.77592 35001 ft 435 kts 226°
2026-05-04 21:14 46.72670 -2.84141 35006 ft 435 kts 226°
2026-05-04 21:14 46.68633 -2.90654 35005 ft 436 kts 226°
2026-05-04 21:15 46.64557 -2.97214 35002 ft 437 kts 226°
2026-05-04 21:15 46.60476 -3.03769 35008 ft 437 kts 226°
2026-05-04 21:16 46.56380 -3.10321 35003 ft 438 kts 225°
2026-05-04 21:16 46.52186 -3.16719 35008 ft 437 kts 224°
2026-05-04 21:17 46.47946 -3.23042 35023 ft 437 kts 224°
2026-05-04 21:17 46.43703 -3.29374 35008 ft 438 kts 224°
2026-05-04 21:18 46.39468 -3.35710 35008 ft 438 kts 224°
2026-05-04 21:18 46.35228 -3.42049 35011 ft 438 kts 224°
2026-05-04 21:19 46.30987 -3.48376 35006 ft 438 kts 224°
2026-05-04 21:19 46.26740 -3.54697 35011 ft 438 kts 224°
2026-05-04 21:20 46.22494 -3.61002 35026 ft 438 kts 224°
2026-05-04 21:20 46.18236 -3.67308 35020 ft 438 kts 224°
2026-05-04 21:21 46.13976 -3.73603 35016 ft 439 kts 224°
2026-05-04 21:21 46.09706 -3.79898 35018 ft 439 kts 224°
2026-05-04 21:22 46.05437 -3.86176 35019 ft 439 kts 224°
2026-05-04 21:22 46.01166 -3.92444 35019 ft 439 kts 224°
2026-05-04 21:23 45.96889 -3.98705 35023 ft 439 kts 224°
2026-05-04 21:23 45.92605 -4.04961 35022 ft 439 kts 224°
2026-05-04 21:24 45.88315 -4.11212 35017 ft 440 kts 224°
2026-05-04 21:24 45.84018 -4.17457 35017 ft 440 kts 224°
2026-05-04 21:25 45.79740 -4.23662 35020 ft 440 kts 224°
2026-05-04 21:25 45.75427 -4.29903 35023 ft 441 kts 224°
2026-05-04 21:26 45.71112 -4.36131 35023 ft 441 kts 224°
2026-05-04 21:26 45.66790 -4.42354 35024 ft 441 kts 224°
2026-05-04 21:27 45.62471 -4.48560 35021 ft 440 kts 224°
2026-05-04 21:27 45.58152 -4.54752 35021 ft 440 kts 224°
2026-05-04 21:28 45.53831 -4.60932 35022 ft 439 kts 224°
2026-05-04 21:28 45.49515 -4.67090 35036 ft 439 kts 224°
2026-05-04 21:29 45.45194 -4.73242 35018 ft 439 kts 224°
2026-05-04 21:29 45.40874 -4.79377 35021 ft 439 kts 224°
2026-05-04 21:30 45.36552 -4.85502 35023 ft 439 kts 224°
2026-05-04 21:30 45.32223 -4.91623 35029 ft 439 kts 224°
2026-05-04 21:31 45.25723 -5.00786 35023 ft 439 kts 224°
2026-05-04 21:32 45.21388 -5.06881 35029 ft 439 kts 224°
2026-05-04 21:32 45.17046 -5.12971 35029 ft 439 kts 224°
2026-05-04 21:33 45.12695 -5.19059 35025 ft 440 kts 224°
2026-05-04 21:33 45.08368 -5.25102 35029 ft 440 kts 224°
2026-05-04 21:34 45.04011 -5.31172 35029 ft 440 kts 224°
2026-05-04 21:34 44.99646 -5.37240 35031 ft 440 kts 224°
2026-05-04 21:35 44.95276 -5.43300 35022 ft 441 kts 224°
2026-05-04 21:35 44.90896 -5.49361 35028 ft 441 kts 224°
2026-05-04 21:36 44.86512 -5.55414 35030 ft 441 kts 224°
2026-05-04 21:36 44.82121 -5.61463 35029 ft 441 kts 224°
2026-05-04 21:37 44.77725 -5.67506 35019 ft 441 kts 224°
2026-05-04 21:37 44.73338 -5.73525 35023 ft 441 kts 224°
2026-05-04 21:38 44.68943 -5.79541 35024 ft 441 kts 224°
2026-05-04 21:38 44.64425 -5.85352 35021 ft 441 kts 217°
2026-05-04 21:39 44.59417 -5.90325 35026 ft 441 kts 215°
2026-05-04 21:39 44.54356 -5.95213 35032 ft 442 kts 215°
2026-05-04 21:40 44.49314 -6.00133 35029 ft 442 kts 216°
2026-05-04 21:40 44.44310 -6.05051 35027 ft 442 kts 216°
2026-05-04 21:41 44.39280 -6.10002 35026 ft 442 kts 216°
2026-05-04 21:41 44.34238 -6.14956 35030 ft 443 kts 216°
2026-05-04 21:42 44.29192 -6.19902 35035 ft 444 kts 216°
2026-05-04 21:42 44.24133 -6.24849 35029 ft 444 kts 216°
2026-05-04 21:43 44.19074 -6.29784 35045 ft 444 kts 216°
2026-05-04 21:43 44.14014 -6.34712 35042 ft 444 kts 216°
2026-05-04 21:44 44.08948 -6.39633 35040 ft 444 kts 216°
2026-05-04 21:44 44.03877 -6.44549 35031 ft 444 kts 216°
2026-05-04 21:45 43.98808 -6.49453 35037 ft 444 kts 216°
2026-05-04 21:45 43.93741 -6.54344 35039 ft 444 kts 216°
2026-05-04 21:46 43.88674 -6.59226 35037 ft 444 kts 216°
2026-05-04 21:46 43.83600 -6.64104 35032 ft 444 kts 216°
2026-05-04 21:47 43.78522 -6.68975 35047 ft 444 kts 216°
2026-05-04 21:47 43.73445 -6.73835 35051 ft 444 kts 216°
2026-05-04 21:48 43.68361 -6.78692 35052 ft 444 kts 216°
2026-05-04 21:48 43.63307 -6.83509 35053 ft 444 kts 216°
2026-05-04 21:49 43.58220 -6.88348 35052 ft 444 kts 217°
2026-05-04 21:49 43.53125 -6.93185 35064 ft 444 kts 217°
2026-05-04 21:50 43.48031 -6.98011 35066 ft 445 kts 217°
2026-05-04 21:50 43.42920 -7.02839 35073 ft 445 kts 217°
2026-05-04 21:51 43.37835 -7.07636 35052 ft 439 kts 217°
2026-05-04 21:51 43.32826 -7.12352 35074 ft 436 kts 217°
2026-05-04 21:52 43.27809 -7.17068 35083 ft 438 kts 217°
2026-05-04 21:52 43.22773 -7.21791 35081 ft 439 kts 217°
2026-05-04 21:53 43.17717 -7.26522 35080 ft 440 kts 217°
2026-05-04 21:53 43.13533 -7.30427 35073 ft 429 kts 217°
2026-05-04 21:53 43.11092 -7.32700 34799 ft 421 kts 217°
2026-05-04 21:54 43.08708 -7.34918 34509 ft 409 kts 217°
2026-05-04 21:54 43.05628 -7.37783 34005 ft 400 kts 217°
2026-05-04 21:54 43.03343 -7.39908 33558 ft 394 kts 218°
2026-05-04 21:54 43.01102 -7.41990 33149 ft 384 kts 218°
2026-05-04 21:55 42.99624 -7.43361 32936 ft 377 kts 218°
2026-05-04 21:55 42.97475 -7.45355 32535 ft 371 kts 218°
2026-05-04 21:55 42.95362 -7.47314 32168 ft 365 kts 218°
2026-05-04 21:55 42.93258 -7.49264 31826 ft 367 kts 218°
2026-05-04 21:56 42.91117 -7.51253 31479 ft 380 kts 218°
2026-05-04 21:56 42.88896 -7.53314 31079 ft 389 kts 218°
2026-05-04 21:56 42.86674 -7.55366 30680 ft 382 kts 218°
2026-05-04 21:56 42.84487 -7.57379 30303 ft 376 kts 218°
2026-05-04 21:57 42.82335 -7.59359 29875 ft 370 kts 218°
2026-05-04 21:57 42.80218 -7.61306 29421 ft 365 kts 218°
2026-05-04 21:57 42.78127 -7.63232 29053 ft 361 kts 218°
2026-05-04 21:57 42.76077 -7.65118 28635 ft 358 kts 219°
2026-05-04 21:58 42.74025 -7.67004 28298 ft 354 kts 219°
2026-05-04 21:58 42.71991 -7.68873 27919 ft 352 kts 219°
2026-05-04 21:58 42.69972 -7.70728 27540 ft 349 kts 219°
2026-05-04 21:58 42.67967 -7.72568 27182 ft 347 kts 219°
2026-05-04 21:59 42.65971 -7.74397 26813 ft 344 kts 219°
2026-05-04 21:59 42.63991 -7.76208 26460 ft 342 kts 219°
2026-05-04 21:59 42.61982 -7.77932 26096 ft 343 kts 212°
2026-05-04 21:59 42.59767 -7.79177 25748 ft 347 kts 201°
2026-05-04 22:00 42.57456 -7.80071 25409 ft 343 kts 200°
2026-05-04 22:00 42.55160 -7.80908 25097 ft 341 kts 200°
2026-05-04 22:00 42.52858 -7.81743 24728 ft 342 kts 200°
2026-05-04 22:00 42.50557 -7.82581 24380 ft 344 kts 200°
2026-05-04 22:01 42.48229 -7.83446 24060 ft 351 kts 200°
2026-05-04 22:01 42.45858 -7.84326 23654 ft 353 kts 200°
2026-05-04 22:01 42.43489 -7.85202 23221 ft 352 kts 200°
2026-05-04 22:01 42.41140 -7.86072 22831 ft 349 kts 200°
2026-05-04 22:02 42.38811 -7.86936 22467 ft 345 kts 200°
2026-05-04 22:02 42.36508 -7.87791 22105 ft 342 kts 200°
2026-05-04 22:02 42.34227 -7.88639 21761 ft 338 kts 200°
2026-05-04 22:02 42.31967 -7.89479 21431 ft 335 kts 200°
2026-05-04 22:03 42.29732 -7.90310 21099 ft 332 kts 200°
2026-05-04 22:03 42.27510 -7.91137 20748 ft 330 kts 200°
2026-05-04 22:03 42.25303 -7.91958 20413 ft 328 kts 200°
2026-05-04 22:03 42.23113 -7.92772 20080 ft 326 kts 200°
2026-05-04 22:04 42.20934 -7.93581 19759 ft 324 kts 200°
2026-05-04 22:04 42.18768 -7.94385 19424 ft 322 kts 200°
2026-05-04 22:04 42.16612 -7.95185 19097 ft 321 kts 200°
2026-05-04 22:04 42.14465 -7.95980 18772 ft 319 kts 200°
2026-05-04 22:05 42.12327 -7.96771 18434 ft 318 kts 200°
2026-05-04 22:05 42.10198 -7.97559 18056 ft 317 kts 200°
2026-05-04 22:05 42.08075 -7.98344 17746 ft 313 kts 200°
2026-05-04 22:05 42.06003 -7.99108 17404 ft 312 kts 200°
2026-05-04 22:06 42.03921 -7.99877 17097 ft 310 kts 200°
2026-05-04 22:06 42.01850 -8.00641 16773 ft 308 kts 200°
2026-05-04 22:06 41.99791 -8.01400 16459 ft 305 kts 200°
2026-05-04 22:06 41.97750 -8.02152 16143 ft 303 kts 200°
2026-05-04 22:07 41.95721 -8.02899 15838 ft 301 kts 199°
2026-05-04 22:07 41.93706 -8.03641 15528 ft 299 kts 199°
2026-05-04 22:07 41.91702 -8.04379 15217 ft 298 kts 199°
2026-05-04 22:07 41.89704 -8.05113 14919 ft 297 kts 199°
2026-05-04 22:08 41.87715 -8.05844 14614 ft 296 kts 199°
2026-05-04 22:08 41.85736 -8.06570 14299 ft 294 kts 199°
2026-05-04 22:08 41.83761 -8.07294 14011 ft 294 kts 199°
2026-05-04 22:08 41.81894 -8.08304 13642 ft 287 kts 220°
2026-05-04 22:09 41.80545 -8.10204 13244 ft 281 kts 239°
2026-05-04 22:09 41.79528 -8.12426 12918 ft 279 kts 243°
2026-05-04 22:09 41.78579 -8.14691 12581 ft 279 kts 244°
2026-05-04 22:09 41.77625 -8.16945 12285 ft 278 kts 243°
2026-05-04 22:10 41.76660 -8.19185 11961 ft 277 kts 243°
2026-05-04 22:10 41.75688 -8.21413 11674 ft 276 kts 243°
2026-05-04 22:10 41.74718 -8.23627 11377 ft 275 kts 243°
2026-05-04 22:10 41.73778 -8.25828 11167 ft 270 kts 244°
2026-05-04 22:11 41.72861 -8.28008 10901 ft 268 kts 244°
2026-05-04 22:11 41.71947 -8.30187 10612 ft 268 kts 244°
2026-05-04 22:11 41.71034 -8.32359 10336 ft 267 kts 244°
2026-05-04 22:11 41.70134 -8.34493 10207 ft 260 kts 244°
2026-05-04 22:12 41.69256 -8.36575 10032 ft 255 kts 244°
2026-05-04 22:12 41.68382 -8.38647 9684 ft 256 kts 244°
2026-05-04 22:12 41.67521 -8.40686 9393 ft 254 kts 244°
2026-05-04 22:12 41.66652 -8.42740 9117 ft 253 kts 244°
2026-05-04 22:13 41.65791 -8.44777 8846 ft 251 kts 244°
2026-05-04 22:13 41.64934 -8.46801 8573 ft 249 kts 244°
2026-05-04 22:13 41.64082 -8.48812 8313 ft 248 kts 244°
2026-05-04 22:13 41.63237 -8.50806 8051 ft 246 kts 244°
2026-05-04 22:14 41.62395 -8.52792 7790 ft 245 kts 244°
2026-05-04 22:14 41.61553 -8.54774 7529 ft 245 kts 244°
2026-05-04 22:14 41.60713 -8.56749 7271 ft 245 kts 244°
2026-05-04 22:14 41.59872 -8.58724 7011 ft 245 kts 243°
2026-05-04 22:15 41.58970 -8.60679 6733 ft 251 kts 240°
2026-05-04 22:15 41.58004 -8.62652 6446 ft 254 kts 240°
2026-05-04 22:15 41.57033 -8.64628 6140 ft 255 kts 240°
2026-05-04 22:15 41.56066 -8.66603 5817 ft 252 kts 240°
2026-05-04 22:16 41.55119 -8.68544 5540 ft 249 kts 240°
2026-05-04 22:16 41.54180 -8.70471 5292 ft 245 kts 240°
2026-05-04 22:16 41.53260 -8.72359 4982 ft 240 kts 240°
2026-05-04 22:16 41.52198 -8.74051 4671 ft 241 kts 216°
2026-05-04 22:17 41.50617 -8.74630 4590 ft 238 kts 181°
2026-05-04 22:17 41.48986 -8.74397 4333 ft 233 kts 173°
2026-05-04 22:17 41.47401 -8.74044 4039 ft 229 kts 171°
2026-05-04 22:17 41.45847 -8.73647 3771 ft 225 kts 171°
2026-05-04 22:18 41.44321 -8.73245 3489 ft 221 kts 170°
2026-05-04 22:18 41.42830 -8.72852 3215 ft 216 kts 171°
2026-05-04 22:18 41.41371 -8.72469 2951 ft 210 kts 171°
2026-05-04 22:18 41.39980 -8.72102 2704 ft 196 kts 170°
2026-05-04 22:19 41.38680 -8.71763 2457 ft 185 kts 170°
2026-05-04 22:19 41.37465 -8.71445 2246 ft 172 kts 170°
2026-05-04 22:19 41.36333 -8.71148 2069 ft 164 kts 170°
2026-05-04 22:19 41.35219 -8.70856 1855 ft 161 kts 169°
2026-05-04 22:20 41.34142 -8.70573 1646 ft 156 kts 170°
2026-05-04 22:20 41.33074 -8.70294 1456 ft 157 kts 169°
2026-05-04 22:20 41.32002 -8.70014 1274 ft 157 kts 169°
2026-05-04 22:20 41.30929 -8.69716 1099 ft 159 kts 169°
2026-05-04 22:21 41.29850 -8.69441 893 ft 161 kts 170°
2026-05-04 22:21 41.28732 -8.69161 655 ft 164 kts 168°
2026-05-04 22:21 41.27629 -8.68858 461 ft 161 kts 169°
2026-05-04 22:21 41.26553 -8.68579 315 ft 156 kts 170°
2026-05-04 22:22 41.25497 -8.68309 176 ft 150 kts 169°
2026-05-04 22:22 41.24626 -8.68079 205 ft 83 kts 168°
2026-05-04 22:22 41.24182 -8.67962 213 ft 60 kts 169°
2026-05-04 22:22 41.23918 -8.67891 221 ft 23 kts 168°
2026-05-04 22:23 41.23781 -8.67857 225 ft 12 kts 171°
2026-05-04 22:23 41.23729 -8.67901 225 ft 10 kts 254°
2026-05-04 22:23 41.23724 -8.67991 225 ft 10 kts 266°
2026-05-04 22:23 41.23721 -8.68081 224 ft 10 kts 267°
2026-05-04 22:24 41.23717 -8.68184 220 ft 13 kts 268°
2026-05-04 22:24 41.23714 -8.68278 220 ft 1 kts 268°
2026-05-04 22:24 41.23714 -8.68300 215 ft 5 kts 268°
2026-05-04 22:25 41.23698 -8.68346 221 ft 6 kts 217°
2026-05-04 22:25 41.23658 -8.68351 218 ft 6 kts 170°
2026-05-04 22:25 41.23627 -8.68370 217 ft 6 kts 246°
2026-05-04 22:25 41.23628 -8.68419 217 ft 5 kts 275°
2026-05-04 22:26 41.23625 -8.68455 220 ft 2 kts 257°
2026-05-04 22:26 41.23623 -8.68469 219 ft 0 kts 258°